Phoenix Deer Valley, AZ

10:55 AM MST on December 12, 2019 (GMT -0700)
Phoenix-Deer Valley Municipal

Weather History for KDVT - August, 2019

Change the Weather History Date:

Thursday, August 8, 2019

  Actual Average Record
Temperature  
Mean Temperature 94 °F -  
Max Temperature 105 °F 100 °F 111 °F (2012)
Min Temperature 84 °F 80 °F 73 °F (2013)
Cooling Degree Days 30    
Growing Degree Days 44 (Base 50)    
Moisture  
Dew Point 56 °F    
Average Humidity 26    
Maximum Humidity 41    
Minimum Humidity 18    
Precipitation  
Precipitation 0.00 in - - ()
Sea Level Pressure  
Sea Level Pressure 29.79 in    
Wind  
Wind Speed 5 mph (SW)    
Max Wind Speed 13 mph    
Max Gust Speed 13 mph    
Visibility 10 miles    
Events      
Averages and records for this station are not official NWS values.
T = Trace of Precipitation, MM = Missing Value Source: NWS Daily Summary

Daily Weather History Graph

Daily Weather History Graph

Search for Another Location

Airport or City:

Astronomy

Aug. 08, 2019 Rise Set
Actual Time 5:45 AM MST 7:22 PM MST
Civil Twilight 5:18 AM MST 7:48 PM MST
Nautical Twilight 4:46 AM MST 8:21 PM MST
Astronomical Twilight 4:12 AM MST 8:54 PM MST
Moon 2:01 PM MST (8/8) 12:07 AM MST (8/8)
Length of Visible Light 14h 30m
Length of Day
13h 36m
First Quarter, 61% of the Moon is Illuminated
Aug 8
First Quarter
Aug 15
Full
Aug 23
Last Quarter
Aug 30
New
Sep 5
First Quarter

Hourly Weather History & Observations

Time (MST) Temp. Heat Index Dew Point Humidity Pressure Visibility Wind Dir Wind Speed Gust Speed Precip Events Conditions
12:53 AM - - - N/A% 29.86 in - North - - N/A   Unknown
1:53 AM - - - N/A% 29.85 in - North - - N/A   Unknown
2:53 AM - - - N/A% 29.85 in - North - - N/A   Unknown
3:53 AM - - - N/A% 29.85 in - North - - N/A   Unknown
4:53 AM - - - N/A% 29.85 in - North - - N/A   Unknown
5:53 AM - - - N/A% 29.87 in - North - - N/A   Unknown
6:53 AM 84.9 °F 84.4 °F 59.0 °F 41% 29.81 in 10.0 mi NNE 3.5 mph - N/A   Clear
7:53 AM 89.1 °F 88.8 °F 60.1 °F 38% 29.82 in 10.0 mi Calm Calm - N/A   Clear
8:53 AM 91.0 °F 90.5 °F 60.1 °F 35% 29.83 in 10.0 mi Variable 4.6 mph - N/A   Clear
9:53 AM 93.0 °F 92.7 °F 60.1 °F 33% 29.83 in 10.0 mi SSW 3.5 mph - N/A   Clear
10:53 AM 96.1 °F 95.2 °F 57.9 °F 28% 29.82 in 10.0 mi Variable 4.6 mph - N/A   Clear
11:53 AM 99.0 °F 98.1 °F 57.0 °F 25% 29.80 in 10.0 mi West 5.8 mph - N/A   Clear
12:53 PM 100.0 °F 98.3 °F 55.0 °F 22% 29.86 in 10.0 mi WSW 8.1 mph 12.7 mph N/A   Clear
1:53 PM 100.9 °F 99.6 °F 55.0 °F 22% 29.83 in 10.0 mi Variable 4.6 mph - N/A   Clear
2:53 PM 105.1 °F 103.3 °F 54.0 °F 18% 29.81 in 10.0 mi WSW 10.4 mph - N/A   Clear
3:53 PM 102.9 °F 101.4 °F 54.0 °F 20% 29.78 in 10.0 mi Variable 3.5 mph - N/A   Clear
4:53 PM 102.9 °F 101.9 °F 55.9 °F 21% 29.76 in 10.0 mi West 8.1 mph - N/A   Unknown
5:53 PM 104.0 °F 102.9 °F 55.0 °F 20% 29.74 in 10.0 mi SW 12.7 mph - N/A   Clear
6:53 PM 102.0 °F 100.1 °F 54.0 °F 20% 29.66 in 10.0 mi South 5.8 mph - N/A   Clear
7:53 PM 100.9 °F 98.7 °F 53.1 °F 20% 29.68 in 10.0 mi SW 8.1 mph - N/A   Clear
8:53 PM 100.0 °F 97.9 °F 54.0 °F 21% 29.70 in 10.0 mi SW 6.9 mph - N/A   Clear
9:53 PM 98.1 °F 96.4 °F 55.0 °F 24% 29.72 in 10.0 mi SSW 3.5 mph - N/A   Clear
10:53 PM 97.0 °F 95.0 °F 55.0 °F 24% 29.72 in 10.0 mi WSW 3.5 mph - N/A   Clear
11:53 PM 93.9 °F 92.0 °F 55.0 °F 27% 29.73 in 10.0 mi East 3.5 mph - N/A   Partly Cloudy